| time (UTC) | temp F | wind direction | speed MPH | gust MPH | rain 1hr in | rain 24hr in | rain mn in | humidity % | barometer mb |
| 20260510182002 | 55 | 251 | 6.0 | 0.0 | 0.00 | 0.00 | 0.00 | 86 | 1007.5 |
| 20260510181502 | 55 | 260 | 4.0 | 0.0 | 0.00 | 0.00 | 0.00 | 85 | 1007.5 |
| 20260510181002 | 55 | 255 | 6.0 | 0.0 | 0.00 | 0.00 | 0.00 | 83 | 1007.4 |
| 20260510180501 | 56 | 294 | 8.0 | 0.0 | 0.00 | 0.00 | 0.00 | 80 | 1007.4 |
| 20260510180002 | 57 | 289 | 11.0 | 0.0 | 0.00 | 0.00 | 0.00 | 77 | 1007.1 |
| 20260510175502 | 58 | 284 | 8.0 | 0.0 | 0.00 | 0.00 | 0.00 | 73 | 1007.1 |
| 20260510175001 | 59 | 270 | 8.0 | 0.0 | 0.00 | 0.00 | 0.00 | 69 | 1007.0 |
| 20260510174502 | 60 | 263 | 8.0 | 0.0 | 0.00 | 0.00 | 0.00 | 64 | 1006.8 |
| 20260510174001 | 61 | 272 | 5.0 | 0.0 | 0.00 | 0.00 | 0.00 | 61 | 1006.8 |
| 20260510173502 | 61 | 277 | 7.0 | 0.0 | 0.00 | 0.00 | 0.00 | 58 | 1006.6 |
| 20260510173001 | 62 | 296 | 5.0 | 0.0 | 0.00 | 0.00 | 0.00 | 55 | 1006.7 |
| 20260510172501 | 63 | 246 | 4.0 | 0.0 | 0.00 | 0.00 | 0.00 | 52 | 1006.6 |
| 20260510172001 | 63 | 265 | 7.0 | 0.0 | 0.00 | 0.00 | 0.00 | 51 | 1006.6 |
| 20260510171502 | 63 | 250 | 3.0 | 0.0 | 0.00 | 0.00 | 0.00 | 50 | 1006.6 |
| 20260510171002 | 64 | 257 | 4.0 | 0.0 | 0.00 | 0.00 | 0.00 | 49 | 1006.6 |
| 20260510170501 | 64 | 262 | 5.0 | 0.0 | 0.00 | 0.00 | 0.00 | 49 | 1006.6 |
| 20260510170002 | 64 | 243 | 4.0 | 0.0 | 0.00 | 0.00 | 0.00 | 49 | 1006.6 |
| 20260510165501 | 64 | 248 | 2.0 | 0.0 | 0.00 | 0.00 | 0.00 | 48 | 1006.6 |
| 20260510165002 | 64 | 241 | 3.0 | 0.0 | 0.00 | 0.00 | 0.00 | 47 | 1006.6 |
| 20260510164501 | 65 | 235 | 3.0 | 0.0 | 0.00 | 0.00 | 0.00 | 46 | 1006.6 |
| 20260510164002 | 65 | 220 | 6.0 | 0.0 | 0.00 | 0.00 | 0.00 | 44 | 1006.6 |
| 20260510163501 | 65 | 232 | 4.0 | 0.0 | 0.00 | 0.00 | 0.00 | 45 | 1006.7 |
| 20260510163002 | 65 | 277 | 4.0 | 0.0 | 0.00 | 0.00 | 0.00 | 43 | 1006.6 |
| 20260510162503 | 66 | 264 | 4.0 | 0.0 | 0.00 | 0.00 | 0.00 | 43 | 1006.7 |
| 20260510162001 | 66 | 262 | 3.0 | 0.0 | 0.00 | 0.00 | 0.00 | 43 | 1006.8 |
| 20260510161502 | 66 | 245 | 6.0 | 0.0 | 0.00 | 0.00 | 0.00 | 43 | 1006.6 |
| 20260510161001 | 66 | 231 | 7.0 | 0.0 | 0.00 | 0.00 | 0.00 | 43 | 1006.6 |
| 20260510160502 | 66 | 275 | 8.0 | 0.0 | 0.00 | 0.00 | 0.00 | 44 | 1006.7 |
| 20260510160001 | 66 | 245 | 5.0 | 0.0 | 0.00 | 0.00 | 0.00 | 45 | 1006.7 |
| 20260510155502 | 67 | 247 | 7.0 | 0.0 | 0.00 | 0.00 | 0.00 | 46 | 1006.7 |
| 20260510155002 | 67 | 274 | 9.0 | 0.0 | 0.00 | 0.00 | 0.00 | 46 | 1006.6 |
| 20260510154502 | 67 | 281 | 9.0 | 0.0 | 0.00 | 0.00 | 0.00 | 47 | 1006.8 |
| 20260510154002 | 67 | 242 | 3.0 | 0.0 | 0.00 | 0.00 | 0.00 | 48 | 1006.8 |
| 20260510153502 | 67 | 240 | 7.0 | 0.0 | 0.00 | 0.00 | 0.00 | 48 | 1006.8 |
| 20260510153002 | 69 | 226 | 6.0 | 0.0 | 0.00 | 0.00 | 0.00 | 46 | 1006.9 |
| 20260510152501 | 69 | 223 | 1.0 | 0.0 | 0.00 | 0.00 | 0.00 | 43 | 1006.9 |
| 20260510152002 | 70 | 204 | 2.0 | 0.0 | 0.00 | 0.00 | 0.00 | 42 | 1006.8 |
| 20260510151501 | 70 | 355 | 2.0 | 0.0 | 0.00 | 0.00 | 0.00 | 40 | 1006.7 |
| 20260510151002 | 69 | 319 | 4.0 | 0.0 | 0.00 | 0.00 | 0.00 | 44 | 1006.8 |
| 20260510150501 | 69 | 237 | 4.0 | 0.0 | 0.00 | 0.00 | 0.00 | 47 | 1006.9 |
| 20260510150001 | 69 | 244 | 5.0 | 0.0 | 0.00 | 0.00 | 0.00 | 43 | 1006.9 |
| 20260510145502 | 70 | 241 | 3.0 | 0.0 | 0.00 | 0.00 | 0.00 | 45 | 1006.9 |
| 20260510145002 | 70 | 264 | 3.0 | 0.0 | 0.00 | 0.00 | 0.00 | 43 | 1006.9 |
| 20260510144502 | 71 | 239 | 3.0 | 0.0 | 0.00 | 0.00 | 0.00 | 39 | 1007.0 |
| 20260510144001 | 70 | 256 | 1.0 | 0.0 | 0.00 | 0.00 | 0.00 | 35 | 1006.9 |
| 20260510143502 | 70 | 268 | 3.0 | 0.0 | 0.00 | 0.00 | 0.00 | 34 | 1007.0 |
| 20260510143001 | 70 | 271 | 4.0 | 0.0 | 0.00 | 0.00 | 0.00 | 36 | 1007.0 |
| 20260510142502 | 70 | 249 | 3.0 | 0.0 | 0.00 | 0.00 | 0.00 | 34 | 1007.0 |
| 20260510142002 | 71 | 238 | 3.0 | 0.0 | 0.00 | 0.00 | 0.00 | 36 | 1007.1 |
| 20260510141502 | 71 | 271 | 3.0 | 0.0 | 0.00 | 0.00 | 0.00 | 36 | 1007.1 |
| 20260510141003 | 71 | 243 | 3.0 | 0.0 | 0.00 | 0.00 | 0.00 | 36 | 1007.1 |
| 20260510140502 | 71 | 207 | 3.0 | 0.0 | 0.00 | 0.00 | 0.00 | 38 | 1007.1 |
| 20260510140002 | 71 | 293 | 3.0 | 0.0 | 0.00 | 0.00 | 0.00 | 38 | 1007.0 |
| 20260510135502 | 71 | 199 | 1.0 | 0.0 | 0.00 | 0.00 | 0.00 | 34 | 1007.1 |
| 20260510135002 | 70 | 270 | 1.0 | 0.0 | 0.00 | 0.00 | 0.00 | 41 | 1007.1 |
| 20260510134501 | 70 | 239 | 2.0 | 0.0 | 0.00 | 0.00 | 0.00 | 47 | 1007.2 |
| 20260510134003 | 69 | 282 | 4.0 | 0.0 | 0.00 | 0.00 | 0.00 | 46 | 1007.3 |
| 20260510133501 | 69 | 280 | 4.0 | 0.0 | 0.00 | 0.00 | 0.00 | 47 | 1007.4 |
| 20260510133002 | 69 | 255 | 3.0 | 0.0 | 0.00 | 0.00 | 0.00 | 49 | 1007.4 |
| 20260510132502 | 69 | 246 | 4.0 | 0.0 | 0.00 | 0.00 | 0.00 | 53 | 1007.4 |
| 20260510132001 | 68 | 214 | 6.0 | 0.0 | 0.00 | 0.00 | 0.00 | 53 | 1007.4 |
| 20260510131502 | 69 | 206 | 6.0 | 0.0 | 0.00 | 0.00 | 0.00 | 51 | 1007.6 |
| 20260510131001 | 69 | 221 | 6.0 | 0.0 | 0.00 | 0.00 | 0.00 | 52 | 1007.6 |
| 20260510130502 | 69 | 257 | 7.0 | 0.0 | 0.00 | 0.00 | 0.00 | 50 | 1007.6 |
| 20260510130001 | 69 | 249 | 5.0 | 0.0 | 0.00 | 0.00 | 0.00 | 50 | 1007.6 |
| 20260510125502 | 68 | 259 | 4.0 | 0.0 | 0.00 | 0.00 | 0.00 | 48 | 1007.6 |
| 20260510125001 | 69 | 253 | 5.0 | 0.0 | 0.00 | 0.00 | 0.00 | 50 | 1007.6 |
| 20260510124502 | 69 | 243 | 3.0 | 0.0 | 0.00 | 0.00 | 0.00 | 54 | 1007.7 |
| 20260510124002 | 69 | 215 | 5.0 | 0.0 | 0.00 | 0.00 | 0.00 | 52 | 1007.8 |
| 20260510123502 | 69 | 243 | 5.0 | 0.0 | 0.00 | 0.00 | 0.00 | 52 | 1007.6 |
| 20260510123002 | 70 | 225 | 6.0 | 0.0 | 0.00 | 0.00 | 0.00 | 46 | 1007.7 |
| 20260510122501 | 71 | 193 | 2.0 | 0.0 | 0.00 | 0.00 | 0.00 | 43 | 1007.7 |
| 20260510122003 | 71 | 0 | 0.0 | 0.0 | 0.00 | 0.00 | 0.00 | 38 | 1007.8 |
| 20260510121501 | 70 | 240 | 2.0 | 0.0 | 0.00 | 0.00 | 0.00 | 38 | 1007.8 |
| 20260510121002 | 71 | 0 | 0.0 | 0.0 | 0.00 | 0.00 | 0.00 | 39 | 1007.9 |
| 20260510120502 | 70 | 212 | 4.0 | 0.0 | 0.00 | 0.00 | 0.00 | 38 | 1007.8 |
| 20260510120002 | 71 | 275 | 3.0 | 0.0 | 0.00 | 0.00 | 0.00 | 40 | 1008.0 |
| 20260510115502 | 71 | 176 | 2.0 | 0.0 | 0.00 | 0.00 | 0.00 | 38 | 1007.9 |
| 20260510115001 | 71 | 144 | 2.0 | 0.0 | 0.00 | 0.00 | 0.00 | 38 | 1008.1 |
| 20260510114502 | 70 | 133 | 1.0 | 0.0 | 0.00 | 0.00 | 0.00 | 39 | 1008.0 |
| 20260510114001 | 71 | 185 | 4.0 | 0.0 | 0.00 | 0.00 | 0.00 | 39 | 1008.1 |
| 20260510113502 | 71 | 129 | 1.0 | 0.0 | 0.00 | 0.00 | 0.00 | 38 | 1008.0 |
| 20260510113002 | 70 | 99 | 1.0 | 0.0 | 0.00 | 0.00 | 0.00 | 39 | 1008.0 |
| 20260510112503 | 71 | 84 | 5.0 | 0.0 | 0.00 | 0.00 | 0.00 | 40 | 1008.0 |
| 20260510112001 | 71 | 89 | 4.0 | 0.0 | 0.00 | 0.00 | 0.00 | 41 | 1008.3 |
| 20260510111502 | 70 | 28 | 5.0 | 0.0 | 0.00 | 0.00 | 0.00 | 43 | 1008.2 |
| 20260510111001 | 71 | 75 | 6.0 | 0.0 | 0.00 | 0.00 | 0.00 | 42 | 1008.3 |
| 20260510110502 | 70 | 22 | 4.0 | 0.0 | 0.00 | 0.00 | 0.00 | 43 | 1008.4 |
| 20260510110001 | 70 | 348 | 2.0 | 0.0 | 0.00 | 0.00 | 0.00 | 42 | 1008.5 |
| 20260510105502 | 69 | 0 | 0.0 | 0.0 | 0.00 | 0.00 | 0.00 | 43 | 1008.5 |
| 20260510105002 | 69 | 66 | 6.0 | 0.0 | 0.00 | 0.00 | 0.00 | 42 | 1008.7 |
| 20260510104501 | 69 | 98 | 4.0 | 0.0 | 0.00 | 0.00 | 0.00 | 44 | 1008.7 |
| 20260510104002 | 69 | 65 | 5.0 | 0.0 | 0.00 | 0.00 | 0.00 | 43 | 1008.8 |
| 20260510103501 | 69 | 312 | 3.0 | 0.0 | 0.00 | 0.00 | 0.00 | 44 | 1008.9 |
| 20260510103002 | 68 | 66 | 1.0 | 0.0 | 0.00 | 0.00 | 0.00 | 45 | 1008.9 |
| 20260510102501 | 68 | 24 | 6.0 | 0.0 | 0.00 | 0.00 | 0.00 | 46 | 1008.9 |
| 20260510102002 | 69 | 58 | 5.0 | 0.0 | 0.00 | 0.00 | 0.00 | 45 | 1008.9 |
| 20260510101501 | 69 | 142 | 6.0 | 0.0 | 0.00 | 0.00 | 0.00 | 45 | 1008.9 |
| 20260510101002 | 68 | 337 | 6.0 | 0.0 | 0.00 | 0.00 | 0.00 | 43 | 1008.9 |
| 20260510100501 | 68 | 66 | 6.0 | 0.0 | 0.00 | 0.00 | 0.00 | 46 | 1009.0 |
| 20260510100002 | 68 | 68 | 6.0 | 0.0 | 0.00 | 0.00 | 0.00 | 46 | 1008.9 |
| 20260510095502 | 68 | 58 | 8.0 | 0.0 | 0.00 | 0.00 | 0.00 | 46 | 1009.0 |
| 20260510095002 | 67 | 38 | 3.0 | 0.0 | 0.00 | 0.00 | 0.00 | 48 | 1009.0 |
| 20260510094502 | 66 | 45 | 3.0 | 0.0 | 0.00 | 0.00 | 0.00 | 49 | 1009.2 |
| 20260510094001 | 67 | 37 | 4.0 | 0.0 | 0.00 | 0.00 | 0.00 | 47 | 1009.2 |
| 20260510093502 | 67 | 25 | 4.0 | 0.0 | 0.00 | 0.00 | 0.00 | 46 | 1009.2 |
| 20260510093001 | 66 | 50 | 5.0 | 0.0 | 0.00 | 0.00 | 0.00 | 47 | 1009.3 |
| 20260510092501 | 66 | 54 | 3.0 | 0.0 | 0.00 | 0.00 | 0.00 | 46 | 1009.2 |
| 20260510092001 | 67 | 89 | 2.0 | 0.0 | 0.00 | 0.00 | 0.00 | 47 | 1009.3 |
| 20260510091502 | 65 | 189 | 0.0 | 0.0 | 0.00 | 0.00 | 0.00 | 47 | 1009.3 |
| 20260510091002 | 65 | 54 | 4.0 | 0.0 | 0.00 | 0.00 | 0.00 | 47 | 1009.4 |
| 20260510090502 | 65 | 116 | 4.0 | 0.0 | 0.00 | 0.00 | 0.00 | 47 | 1009.4 |
| 20260510090002 | 65 | 3 | 4.0 | 0.0 | 0.00 | 0.00 | 0.00 | 46 | 1009.4 |
| 20260510085502 | 64 | 26 | 2.0 | 0.0 | 0.00 | 0.00 | 0.00 | 47 | 1009.4 |
| 20260510085002 | 64 | 33 | 4.0 | 0.0 | 0.00 | 0.00 | 0.00 | 48 | 1009.4 |
| 20260510084503 | 64 | 72 | 3.0 | 0.0 | 0.00 | 0.00 | 0.00 | 47 | 1009.5 |
| 20260510084001 | 64 | 72 | 5.0 | 0.0 | 0.00 | 0.00 | 0.00 | 51 | 1009.5 |
| 20260510083501 | 63 | 17 | 4.0 | 0.0 | 0.00 | 0.00 | 0.00 | 50 | 1009.5 |
| 20260510083002 | 63 | 83 | 2.0 | 0.0 | 0.00 | 0.00 | 0.00 | 52 | 1009.5 |
| 20260510082502 | 62 | 40 | 5.0 | 0.0 | 0.00 | 0.00 | 0.00 | 54 | 1009.6 |
| 20260510082002 | 62 | 25 | 5.0 | 0.0 | 0.00 | 0.00 | 0.00 | 55 | 1009.7 |
| 20260510081502 | 62 | 31 | 4.0 | 0.0 | 0.00 | 0.00 | 0.00 | 55 | 1009.6 |
| 20260510081001 | 62 | 62 | 6.0 | 0.0 | 0.00 | 0.00 | 0.00 | 58 | 1009.7 |
| 20260510080502 | 62 | 62 | 4.0 | 0.0 | 0.00 | 0.00 | 0.00 | 56 | 1009.7 |
| 20260510080001 | 61 | 27 | 4.0 | 0.0 | 0.00 | 0.00 | 0.00 | 58 | 1009.7 |
| 20260510075502 | 61 | 44 | 5.0 | 0.0 | 0.00 | 0.00 | 0.00 | 58 | 1009.7 |
| 20260510075001 | 61 | 45 | 5.0 | 0.0 | 0.00 | 0.00 | 0.00 | 59 | 1009.7 |
| 20260510074501 | 60 | 76 | 5.0 | 0.0 | 0.00 | 0.00 | 0.00 | 58 | 1009.8 |
| 20260510074002 | 60 | 66 | 4.0 | 0.0 | 0.00 | 0.00 | 0.00 | 60 | 1009.8 |
| 20260510073502 | 60 | 66 | 4.0 | 0.0 | 0.00 | 0.00 | 0.00 | 62 | 1009.8 |
| 20260510073002 | 59 | 25 | 3.0 | 0.0 | 0.00 | 0.00 | 0.00 | 64 | 1009.8 |
| 20260510072501 | 58 | 35 | 4.0 | 0.0 | 0.00 | 0.00 | 0.00 | 65 | 1009.9 |
| 20260510072002 | 59 | 68 | 6.0 | 0.0 | 0.00 | 0.00 | 0.00 | 64 | 1009.9 |
| 20260510071501 | 58 | 72 | 2.0 | 0.0 | 0.00 | 0.00 | 0.00 | 66 | 1009.8 |
| 20260510071002 | 57 | 71 | 4.0 | 0.0 | 0.00 | 0.00 | 0.00 | 67 | 1009.8 |
| 20260510070501 | 57 | 69 | 4.0 | 0.0 | 0.00 | 0.00 | 0.00 | 67 | 1009.8 |
| 20260510070002 | 57 | 52 | 5.0 | 0.0 | 0.00 | 0.00 | 0.00 | 66 | 1009.9 |
| 20260510065502 | 56 | 36 | 4.0 | 0.0 | 0.00 | 0.00 | 0.00 | 68 | 1009.8 |
| 20260510065001 | 55 | 41 | 5.0 | 0.0 | 0.00 | 0.00 | 0.00 | 68 | 1009.9 |
| 20260510064501 | 56 | 51 | 5.0 | 0.0 | 0.00 | 0.00 | 0.00 | 67 | 1009.8 |
| 20260510064002 | 55 | 50 | 4.0 | 0.0 | 0.00 | 0.00 | 0.00 | 68 | 1009.8 |
| 20260510063501 | 55 | 55 | 5.0 | 0.0 | 0.00 | 0.00 | 0.00 | 68 | 1009.9 |
| 20260510063001 | 54 | 68 | 2.0 | 0.0 | 0.00 | 0.00 | 0.00 | 69 | 1009.9 |
| 20260510062502 | 54 | 55 | 4.0 | 0.0 | 0.00 | 0.00 | 0.00 | 70 | 1010.0 |
| 20260510062001 | 53 | 46 | 5.0 | 0.0 | 0.00 | 0.00 | 0.00 | 70 | 1009.9 |
| 20260510061502 | 53 | 34 | 5.0 | 0.0 | 0.00 | 0.00 | 0.00 | 71 | 1009.9 |
| 20260510061001 | 53 | 43 | 6.0 | 0.0 | 0.00 | 0.00 | 0.00 | 71 | 1010.0 |
| 20260510060502 | 52 | 35 | 6.0 | 0.0 | 0.00 | 0.00 | 0.00 | 72 | 1010.0 |
| 20260510060001 | 51 | 33 | 5.0 | 0.0 | 0.00 | 0.00 | 0.00 | 74 | 1010.0 |
| 20260510055502 | 51 | 43 | 6.0 | 0.0 | 0.00 | 0.00 | 0.00 | 75 | 1009.9 |
| 20260510055001 | 51 | 40 | 6.0 | 0.0 | 0.00 | 0.00 | 0.00 | 74 | 1010.1 |
| 20260510054502 | 51 | 47 | 5.0 | 0.0 | 0.00 | 0.00 | 0.00 | 76 | 1010.1 |
| 20260510054002 | 51 | 27 | 5.0 | 0.0 | 0.00 | 0.00 | 0.00 | 76 | 1010.1 |
| 20260510053501 | 50 | 51 | 6.0 | 0.0 | 0.00 | 0.00 | 0.00 | 77 | 1010.1 |
| 20260510053002 | 49 | 46 | 7.0 | 0.0 | 0.00 | 0.00 | 0.00 | 77 | 1010.1 |
| 20260510052501 | 49 | 36 | 6.0 | 0.0 | 0.00 | 0.00 | 0.00 | 77 | 1010.1 |
| 20260510052002 | 49 | 44 | 6.0 | 0.0 | 0.00 | 0.00 | 0.00 | 77 | 1010.3 |
| 20260510051501 | 49 | 44 | 4.0 | 0.0 | 0.00 | 0.00 | 0.00 | 78 | 1010.2 |
| 20260510051002 | 49 | 49 | 5.0 | 0.0 | 0.00 | 0.00 | 0.00 | 78 | 1010.3 |
| 20260510050501 | 48 | 59 | 5.0 | 0.0 | 0.00 | 0.00 | 0.00 | 79 | 1010.4 |
| 20260510050002 | 48 | 46 | 4.0 | 0.0 | 0.00 | 0.00 | 0.00 | 79 | 1010.3 |
| 20260510045502 | 48 | 44 | 3.0 | 0.0 | 0.00 | 0.00 | 0.00 | 79 | 1010.5 |
| 20260510045002 | 48 | 43 | 4.0 | 0.0 | 0.00 | 0.00 | 0.00 | 79 | 1010.5 |
| 20260510044502 | 48 | 47 | 4.0 | 0.0 | 0.00 | 0.00 | 0.00 | 80 | 1010.4 |
| 20260510044002 | 47 | 39 | 4.0 | 0.0 | 0.00 | 0.00 | 0.00 | 80 | 1010.5 |
| 20260510043502 | 47 | 35 | 6.0 | 0.0 | 0.00 | 0.00 | 0.00 | 79 | 1010.4 |
| 20260510043001 | 48 | 45 | 5.0 | 0.0 | 0.00 | 0.00 | 0.00 | 79 | 1010.5 |
| 20260510042502 | 48 | 46 | 4.0 | 0.0 | 0.00 | 0.00 | 0.00 | 78 | 1010.5 |
| 20260510042001 | 49 | 43 | 3.0 | 0.0 | 0.00 | 0.00 | 0.00 | 77 | 1010.5 |
| 20260510041502 | 49 | 37 | 4.0 | 0.0 | 0.00 | 0.00 | 0.00 | 77 | 1010.5 |
| 20260510041002 | 49 | 27 | 4.0 | 0.0 | 0.00 | 0.00 | 0.00 | 78 | 1010.6 |
| 20260510040501 | 49 | 39 | 5.0 | 0.0 | 0.00 | 0.00 | 0.00 | 77 | 1010.6 |
| 20260510040002 | 49 | 52 | 3.0 | 0.0 | 0.00 | 0.00 | 0.00 | 77 | 1010.6 |
| 20260510035501 | 49 | 42 | 5.0 | 0.0 | 0.00 | 0.00 | 0.00 | 77 | 1010.6 |
| 20260510035002 | 49 | 29 | 3.0 | 0.0 | 0.00 | 0.00 | 0.00 | 77 | 1010.7 |
| 20260510034501 | 50 | 43 | 5.0 | 0.0 | 0.00 | 0.00 | 0.00 | 76 | 1010.7 |
| 20260510034002 | 50 | 46 | 5.0 | 0.0 | 0.00 | 0.00 | 0.00 | 76 | 1010.7 |
| 20260510033501 | 50 | 34 | 6.0 | 0.0 | 0.00 | 0.00 | 0.00 | 75 | 1010.7 |
| 20260510033002 | 51 | 28 | 4.0 | 0.0 | 0.00 | 0.00 | 0.00 | 74 | 1010.8 |
| 20260510032501 | 51 | 30 | 5.0 | 0.0 | 0.00 | 0.00 | 0.00 | 74 | 1011.0 |
| 20260510032002 | 51 | 25 | 6.0 | 0.0 | 0.00 | 0.00 | 0.00 | 73 | 1010.9 |
| 20260510031502 | 52 | 7 | 4.0 | 0.0 | 0.00 | 0.00 | 0.00 | 71 | 1011.1 |
| 20260510031002 | 52 | 9 | 5.0 | 0.0 | 0.00 | 0.00 | 0.00 | 72 | 1011.1 |
| 20260510030502 | 52 | 18 | 4.0 | 0.0 | 0.00 | 0.00 | 0.00 | 72 | 1011.2 |
| 20260510030002 | 52 | 19 | 5.0 | 0.0 | 0.00 | 0.00 | 0.00 | 72 | 1011.0 |
| 20260510025501 | 52 | 17 | 5.0 | 0.0 | 0.00 | 0.00 | 0.00 | 72 | 1011.0 |
| 20260510025002 | 52 | 15 | 4.0 | 0.0 | 0.00 | 0.00 | 0.00 | 71 | 1011.1 |
| 20260510024502 | 52 | 17 | 5.0 | 0.0 | 0.00 | 0.00 | 0.00 | 73 | 1011.2 |
| 20260510024001 | 51 | 23 | 4.0 | 0.0 | 0.00 | 0.00 | 0.00 | 73 | 1011.1 |
| 20260510023502 | 51 | 22 | 5.0 | 0.0 | 0.00 | 0.00 | 0.00 | 73 | 1011.1 |
| 20260510023002 | 52 | 17 | 6.0 | 0.0 | 0.00 | 0.00 | 0.00 | 73 | 1011.2 |
| 20260510022501 | 52 | 21 | 7.0 | 0.0 | 0.00 | 0.00 | 0.00 | 73 | 1011.1 |
| 20260510022002 | 51 | 18 | 6.0 | 0.0 | 0.00 | 0.00 | 0.00 | 73 | 1011.2 |
| 20260510021502 | 52 | 26 | 5.0 | 0.0 | 0.00 | 0.00 | 0.00 | 72 | 1011.2 |
| 20260510021001 | 52 | 25 | 5.0 | 0.0 | 0.00 | 0.00 | 0.00 | 71 | 1011.3 |
| 20260510020502 | 52 | 12 | 6.0 | 0.0 | 0.00 | 0.00 | 0.00 | 71 | 1011.3 |
| 20260510020002 | 53 | 25 | 3.0 | 0.0 | 0.00 | 0.00 | 0.00 | 71 | 1011.4 |
| 20260510015501 | 53 | 15 | 4.0 | 0.0 | 0.00 | 0.00 | 0.00 | 69 | 1011.4 |
| 20260510015002 | 53 | 20 | 4.0 | 0.0 | 0.00 | 0.00 | 0.00 | 70 | 1011.5 |
| 20260510014502 | 53 | 21 | 4.0 | 0.0 | 0.00 | 0.00 | 0.00 | 71 | 1011.5 |
| 20260510014001 | 53 | 27 | 5.0 | 0.0 | 0.00 | 0.00 | 0.00 | 70 | 1011.4 |
| 20260510013502 | 54 | 22 | 6.0 | 0.0 | 0.00 | 0.00 | 0.00 | 69 | 1011.4 |
| 20260510013001 | 54 | 15 | 3.0 | 0.0 | 0.00 | 0.00 | 0.00 | 69 | 1011.6 |
| 20260510012501 | 53 | 9 | 3.0 | 0.0 | 0.00 | 0.00 | 0.00 | 70 | 1011.6 |
| 20260510012002 | 53 | 17 | 5.0 | 0.0 | 0.00 | 0.00 | 0.00 | 70 | 1011.4 |
| 20260510011501 | 54 | 22 | 6.0 | 0.0 | 0.00 | 0.00 | 0.00 | 68 | 1011.6 |
| 20260510011001 | 54 | 15 | 6.0 | 0.0 | 0.00 | 0.00 | 0.00 | 69 | 1011.6 |
| 20260510010502 | 54 | 8 | 6.0 | 0.0 | 0.00 | 0.00 | 0.00 | 68 | 1011.5 |
| 20260510010002 | 54 | 15 | 6.0 | 0.0 | 0.00 | 0.00 | 0.00 | 67 | 1011.6 |
| 20260510005501 | 55 | 9 | 3.0 | 0.0 | 0.00 | 0.00 | 0.00 | 67 | 1011.5 |
| 20260510005002 | 55 | 10 | 4.0 | 0.0 | 0.00 | 0.00 | 0.00 | 66 | 1011.4 |
| 20260510004502 | 55 | 16 | 4.0 | 0.0 | 0.00 | 0.00 | 0.00 | 66 | 1011.4 |
| 20260510004001 | 55 | 341 | 2.0 | 0.0 | 0.00 | 0.00 | 0.00 | 66 | 1011.4 |
| 20260510003502 | 55 | 4 | 3.0 | 0.0 | 0.00 | 0.00 | 0.00 | 65 | 1011.4 |
| 20260510003003 | 56 | 358 | 3.0 | 0.0 | 0.00 | 0.00 | 0.00 | 64 | 1011.3 |
| 20260510002501 | 56 | 356 | 4.0 | 0.0 | 0.00 | 0.00 | 0.00 | 64 | 1011.3 |
| 20260510002002 | 56 | 21 | 5.0 | 0.0 | 0.00 | 0.00 | 0.00 | 64 | 1011.4 |
| 20260510001502 | 56 | 13 | 4.0 | 0.0 | 0.00 | 0.00 | 0.00 | 64 | 1011.4 |
| 20260510001001 | 56 | 26 | 3.0 | 0.0 | 0.00 | 0.00 | 0.00 | 64 | 1011.4 |
| 20260510000502 | 56 | 17 | 4.0 | 0.0 | 0.00 | 0.00 | 0.00 | 64 | 1011.5 |
| 20260510000002 | 56 | 28 | 5.0 | 0.0 | 0.00 | 0.00 | 0.00 | 63 | 1011.5 |
| 20260509235501 | 57 | 15 | 5.0 | 0.0 | 0.00 | 0.00 | 0.00 | 62 | 1011.7 |
| 20260509235002 | 57 | 16 | 4.0 | 0.0 | 0.00 | 0.00 | 0.00 | 62 | 1011.7 |
| 20260509234502 | 57 | 3 | 2.0 | 0.0 | 0.00 | 0.00 | 0.00 | 62 | 1011.8 |
| 20260509234001 | 57 | 9 | 3.0 | 0.0 | 0.00 | 0.00 | 0.00 | 62 | 1011.8 |
| 20260509233502 | 57 | 28 | 5.0 | 0.0 | 0.00 | 0.00 | 0.00 | 62 | 1011.9 |
| 20260509233002 | 57 | 21 | 5.0 | 0.0 | 0.00 | 0.00 | 0.00 | 61 | 1011.8 |
| 20260509232501 | 57 | 29 | 4.0 | 0.0 | 0.00 | 0.00 | 0.00 | 61 | 1011.8 |
| 20260509232002 | 57 | 25 | 5.0 | 0.0 | 0.00 | 0.00 | 0.00 | 61 | 1011.9 |
| 20260509231502 | 57 | 29 | 6.0 | 0.0 | 0.00 | 0.00 | 0.00 | 61 | 1011.9 |
| 20260509231001 | 58 | 22 | 5.0 | 0.0 | 0.00 | 0.00 | 0.00 | 60 | 1012.0 |
| 20260509230502 | 58 | 6 | 2.0 | 0.0 | 0.00 | 0.00 | 0.00 | 59 | 1012.1 |
| 20260509230002 | 58 | 12 | 2.0 | 0.0 | 0.00 | 0.00 | 0.00 | 59 | 1012.1 |
| 20260509225501 | 58 | 5 | 2.0 | 0.0 | 0.00 | 0.00 | 0.00 | 59 | 1012.2 |
| 20260509225002 | 59 | 350 | 2.0 | 0.0 | 0.00 | 0.00 | 0.00 | 58 | 1012.3 |
| 20260509224502 | 58 | 24 | 4.0 | 0.0 | 0.00 | 0.00 | 0.00 | 58 | 1012.1 |
| 20260509224001 | 59 | 33 | 5.0 | 0.0 | 0.00 | 0.00 | 0.00 | 58 | 1012.2 |
| 20260509223502 | 59 | 15 | 3.0 | 0.0 | 0.00 | 0.00 | 0.00 | 57 | 1012.3 |
| 20260509223002 | 60 | 5 | 3.0 | 0.0 | 0.00 | 0.00 | 0.00 | 56 | 1012.2 |
| 20260509222501 | 59 | 25 | 4.0 | 0.0 | 0.00 | 0.00 | 0.00 | 56 | 1012.2 |
| 20260509222002 | 59 | 42 | 5.0 | 0.0 | 0.00 | 0.00 | 0.00 | 57 | 1012.1 |
| 20260509221502 | 59 | 33 | 5.0 | 0.0 | 0.00 | 0.00 | 0.00 | 57 | 1012.1 |
| 20260509221001 | 59 | 38 | 5.0 | 0.0 | 0.00 | 0.00 | 0.00 | 57 | 1012.2 |
| 20260509220502 | 59 | 26 | 5.0 | 0.0 | 0.00 | 0.00 | 0.00 | 57 | 1012.2 |
| 20260509220002 | 59 | 24 | 5.0 | 0.0 | 0.00 | 0.00 | 0.00 | 57 | 1012.2 |
| 20260509215501 | 59 | 29 | 6.0 | 0.0 | 0.00 | 0.00 | 0.00 | 56 | 1012.0 |
| 20260509215001 | 59 | 24 | 6.0 | 0.0 | 0.00 | 0.00 | 0.00 | 56 | 1012.1 |
| 20260509214502 | 59 | 21 | 7.0 | 0.0 | 0.00 | 0.00 | 0.00 | 56 | 1012.1 |
| 20260509214001 | 60 | 30 | 6.0 | 0.0 | 0.00 | 0.00 | 0.00 | 56 | 1012.1 |
| 20260509213502 | 60 | 27 | 5.0 | 0.0 | 0.00 | 0.00 | 0.00 | 55 | 1012.1 |
| 20260509213002 | 60 | 15 | 5.0 | 0.0 | 0.00 | 0.00 | 0.00 | 54 | 1012.1 |
| 20260509212501 | 61 | 12 | 4.0 | 0.0 | 0.00 | 0.00 | 0.00 | 54 | 1012.3 |
| 20260509212001 | 60 | 14 | 7.0 | 0.0 | 0.00 | 0.00 | 0.00 | 55 | 1012.2 |
| 20260509211502 | 60 | 25 | 6.0 | 0.0 | 0.00 | 0.00 | 0.00 | 55 | 1012.2 |
| 20260509211001 | 60 | 23 | 6.0 | 0.0 | 0.00 | 0.00 | 0.00 | 54 | 1012.2 |
| 20260509210501 | 60 | 35 | 6.0 | 0.0 | 0.00 | 0.00 | 0.00 | 54 | 1012.2 |
| 20260509210002 | 60 | 31 | 5.0 | 0.0 | 0.00 | 0.00 | 0.00 | 54 | 1012.3 |
| 20260509205501 | 61 | 41 | 5.0 | 0.0 | 0.00 | 0.00 | 0.00 | 53 | 1012.3 |
| 20260509205001 | 61 | 24 | 6.0 | 0.0 | 0.00 | 0.00 | 0.00 | 52 | 1012.4 |
| 20260509204502 | 61 | 38 | 5.0 | 0.0 | 0.00 | 0.00 | 0.00 | 52 | 1012.3 |
| 20260509204001 | 61 | 27 | 5.0 | 0.0 | 0.00 | 0.00 | 0.00 | 52 | 1012.4 |
| 20260509203501 | 61 | 42 | 6.0 | 0.0 | 0.00 | 0.00 | 0.00 | 52 | 1012.3 |
| 20260509203002 | 62 | 46 | 6.0 | 0.0 | 0.00 | 0.00 | 0.00 | 51 | 1012.3 |
| 20260509202502 | 62 | 41 | 5.0 | 0.0 | 0.00 | 0.00 | 0.00 | 51 | 1012.3 |
| 20260509202002 | 62 | 28 | 4.0 | 0.0 | 0.00 | 0.00 | 0.00 | 50 | 1012.4 |
| 20260509201502 | 63 | 26 | 4.0 | 0.0 | 0.00 | 0.00 | 0.00 | 50 | 1012.4 |
| 20260509201003 | 64 | 19 | 4.0 | 0.0 | 0.00 | 0.00 | 0.00 | 48 | 1012.5 |
| 20260509200502 | 64 | 13 | 4.0 | 0.0 | 0.00 | 0.00 | 0.00 | 48 | 1012.5 |
| 20260509200003 | 64 | 10 | 2.0 | 0.0 | 0.00 | 0.00 | 0.00 | 48 | 1012.5 |
| 20260509195502 | 64 | 22 | 3.0 | 0.0 | 0.00 | 0.00 | 0.00 | 48 | 1012.5 |
| 20260509195002 | 64 | 30 | 4.0 | 0.0 | 0.00 | 0.00 | 0.00 | 48 | 1012.5 |
| 20260509194502 | 64 | 24 | 5.0 | 0.0 | 0.00 | 0.00 | 0.00 | 47 | 1012.5 |
| 20260509194002 | 65 | 26 | 4.0 | 0.0 | 0.00 | 0.00 | 0.00 | 46 | 1012.4 |
| 20260509193502 | 65 | 23 | 4.0 | 0.0 | 0.00 | 0.00 | 0.00 | 46 | 1012.5 |
| 20260509193003 | 64 | 36 | 4.0 | 0.0 | 0.00 | 0.00 | 0.00 | 46 | 1012.5 |
| 20260509192502 | 65 | 42 | 4.0 | 0.0 | 0.00 | 0.00 | 0.00 | 46 | 1012.5 |
| 20260509192003 | 65 | 45 | 5.0 | 0.0 | 0.00 | 0.00 | 0.00 | 46 | 1012.4 |
| 20260509191502 | 65 | 47 | 3.0 | 0.0 | 0.00 | 0.00 | 0.00 | 46 | 1012.4 |
| 20260509191002 | 65 | 43 | 4.0 | 0.0 | 0.00 | 0.00 | 0.00 | 45 | 1012.4 |
| 20260509190502 | 65 | 46 | 4.0 | 0.0 | 0.00 | 0.00 | 0.00 | 45 | 1012.5 |
| 20260509190002 | 65 | 44 | 2.0 | 0.0 | 0.00 | 0.00 | 0.00 | 45 | 1012.4 |
| 20260509185502 | 66 | 25 | 4.0 | 0.0 | 0.00 | 0.00 | 0.00 | 44 | 1012.4 |
| 20260509185001 | 66 | 25 | 4.0 | 0.0 | 0.00 | 0.00 | 0.00 | 44 | 1012.3 |
| 20260509184502 | 66 | 31 | 4.0 | 0.0 | 0.00 | 0.00 | 0.00 | 44 | 1012.2 |
| 20260509184003 | 66 | 37 | 4.0 | 0.0 | 0.00 | 0.00 | 0.00 | 43 | 1012.3 |
| 20260509183502 | 67 | 32 | 3.0 | 0.0 | 0.00 | 0.00 | 0.00 | 42 | 1012.3 |
| 20260509183004 | 67 | 52 | 2.0 | 0.0 | 0.00 | 0.00 | 0.00 | 42 | 1012.2 |
| 20260509182502 | 67 | 61 | 3.0 | 0.0 | 0.00 | 0.00 | 0.00 | 41 | 1012.1 |